TimeEDT,TemperatureF,Dew PointF,Humidity,Sea Level PressureIn,VisibilityMPH,Wind Direction,Wind SpeedMPH,Gust SpeedMPH,PrecipitationIn,Events,Conditions,WindDirDegrees,DateUTC
12:53 AM,79.0,75.9,90,29.99,10.0,SE,4.6,-,N/A,,Overcast,130,2013-08-30 04:53:00
1:53 AM,80.1,75.9,87,29.97,10.0,Calm,Calm,-,N/A,,Overcast,0,2013-08-30 05:53:00
2:53 AM,80.1,75.9,87,29.96,10.0,Calm,Calm,-,N/A,,Partly Cloudy,0,2013-08-30 06:53:00
3:53 AM,79.0,75.0,88,29.95,10.0,Calm,Calm,-,N/A,,Partly Cloudy,0,2013-08-30 07:53:00
4:53 AM,78.1,75.0,90,29.94,10.0,NE,3.5,-,N/A,,Clear,50,2013-08-30 08:53:00
5:53 AM,78.1,75.0,90,29.95,10.0,SSE,3.5,-,N/A,,Clear,160,2013-08-30 09:53:00
6:21 AM,80.6,73.4,79,29.95,10.0,SSW,9.2,-,N/A,,Mostly Cloudy,210,2013-08-30 10:21:00
6:40 AM,78.8,71.6,78,29.95,10.0,SW,10.4,-,N/A,,Mostly Cloudy,230,2013-08-30 10:40:00
6:53 AM,79.0,73.0,82,29.96,10.0,SW,8.1,-,N/A,,Scattered Clouds,230,2013-08-30 10:53:00
7:53 AM,80.1,75.0,85,29.96,10.0,Calm,Calm,-,N/A,,Clear,0,2013-08-30 11:53:00
8:53 AM,84.0,75.9,76,29.98,10.0,NNE,3.5,-,N/A,,Partly Cloudy,30,2013-08-30 12:53:00
9:42 AM,86.0,75.2,70,29.99,10.0,East,3.5,-,N/A,,Mostly Cloudy,80,2013-08-30 13:42:00
9:53 AM,88.0,75.9,67,29.98,10.0,North,5.8,-,N/A,,Overcast,10,2013-08-30 13:53:00
10:18 AM,84.2,73.4,70,29.99,10.0,WNW,5.8,-,N/A,,Overcast,300,2013-08-30 14:18:00
10:53 AM,84.0,73.9,72,29.99,10.0,SW,4.6,-,N/A,,Overcast,230,2013-08-30 14:53:00
11:12 AM,82.4,75.2,79,30.00,10.0,WSW,15.0,-,N/A,Thunderstorm,Thunderstorm,240,2013-08-30 15:12:00
11:51 AM,84.2,71.6,66,29.99,10.0,West,9.2,-,N/A,,Mostly Cloudy,270,2013-08-30 15:51:00
11:53 AM,84.9,72.0,65,29.99,10.0,West,9.2,-,N/A,,Mostly Cloudy,270,2013-08-30 15:53:00
12:53 PM,86.0,71.1,61,29.98,10.0,SSW,9.2,-,N/A,Thunderstorm,Scattered Clouds,210,2013-08-30 16:53:00
1:08 PM,84.2,73.4,70,29.98,1.8,South,5.8,-,0.15,Rain-Thunderstorm,Heavy Thunderstorms and Rain,170,2013-08-30 17:08:00
1:16 PM,78.8,73.4,83,29.99,0.8,NE,17.3,24.2,0.31,Rain-Thunderstorm,Heavy Thunderstorms and Rain,40,2013-08-30 17:16:00
1:31 PM,77.0,69.8,78,29.99,0.2,Calm,Calm,-,1.25,Rain-Thunderstorm,Heavy Thunderstorms and Rain,0,2013-08-30 17:31:00
1:42 PM,77.0,73.4,89,29.99,5.0,Calm,Calm,-,1.36,Rain-Thunderstorm,Light Thunderstorms and Rain,0,2013-08-30 17:42:00
1:51 PM,78.8,71.6,78,29.97,10.0,West,4.6,-,1.36,Thunderstorm,Thunderstorm,260,2013-08-30 17:51:00
1:53 PM,79.0,73.0,82,29.98,10.0,West,3.5,-,1.36,,Overcast,260,2013-08-30 17:53:00
2:29 PM,82.4,73.4,74,29.95,10.0,Calm,Calm,-,N/A,Thunderstorm,Scattered Clouds,0,2013-08-30 18:29:00
2:44 PM,82.4,75.2,79,29.96,10.0,East,6.9,-,N/A,,Clear,90,2013-08-30 18:44:00
2:53 PM,81.0,75.0,82,29.97,10.0,ESE,3.5,-,N/A,,Clear,110,2013-08-30 18:53:00
3:53 PM,84.9,75.0,72,29.94,10.0,SW,5.8,-,N/A,,Clear,220,2013-08-30 19:53:00
4:53 PM,84.9,73.9,69,29.93,10.0,West,9.2,-,N/A,,Clear,270,2013-08-30 20:53:00
5:53 PM,84.9,73.9,69,29.91,10.0,West,8.1,-,N/A,,Clear,280,2013-08-30 21:53:00
6:53 PM,84.0,75.0,74,29.91,10.0,West,5.8,-,N/A,,Clear,280,2013-08-30 22:53:00
7:53 PM,82.9,73.9,74,29.91,10.0,WNW,8.1,-,N/A,,Clear,290,2013-08-30 23:53:00
8:26 PM,80.6,75.2,84,29.92,10.0,Calm,Calm,-,N/A,,Partly Cloudy,0,2013-08-31 00:26:00
8:53 PM,82.0,73.9,76,29.93,10.0,Calm,Calm,-,0.00,Rain,Light Rain,0,2013-08-31 00:53:00
9:53 PM,80.1,75.9,87,29.93,10.0,Calm,Calm,-,0.00,,Clear,0,2013-08-31 01:53:00
10:53 PM,80.1,75.9,87,29.94,10.0,Calm,Calm,-,N/A,,Clear,0,2013-08-31 02:53:00
11:53 PM,81.0,75.0,82,29.94,10.0,Calm,Calm,-,N/A,,Clear,0,2013-08-31 03:53:00